Location: Finney State Fishing Lake and Wildlife Area
(38.1834°N, 100.3310°W)
Time: 13:05:01
(UTC+00:00)

Tiangong - Pass Details

Date: 30 November 2022
Orbit: 383 x 386 km, 41.5° (Epoch: 30 January)

Event Time Altitude Azimuth Distance (km) Brightness Sun altitude
Rises 01:41:27 0° 256° (WSW) 2,255 3.0 -26.9°
Reaches altitude 10° 01:43:32 10° 258° (WSW) 1,406 1.7 -27.3°
Enters shadow 01:44:31 19° 260° (W) 1,010 0.7 -27.5°
